www.pogodaiklimat.ru

Погода и климат >> Архив погоды >> Мексика >> Маталапа


ПОГОДА в Маталапе

  • Прогноз погоды в Маталапе
  • Монитор погоды в Маталапе

АРХИВ ПОГОДЫ в Маталапе

Время (UTC), дата Ветер
(напр.,м/с)
 
Видим.   Явления Облачность Т
(С)
Тd
(С)
f
(%)
Тe
(С)
Тes
(С)
Комфортность P
(гПа)
Po
(гПа)
Тmin
(С)
Tmax
(С)
R
(мм)
R24
(мм)
S
(см)
12 14.04 штиль 0 30 км 9/9 1110 м
[Sc diur, vesp]
+22.2 +21.6 96 +29 +29 очень
душно
1015.7 1000.2 +22.1 +42.0
15 14.04 ЮВ 1 30 км 9/4 1110 м
[Sc diur, vesp As op]
+23.4 +19.7 80 +30 +32 очень
душно
1019.0 1003.6
18 14.04 ЮВ 1 30 км 5/5 1200 м
[Sc diur, vesp]
+26.0 +18.1 62 +31 +43 очень
душно
1018.9 1003.5 +21.7 +27.0
12 15.04 штиль 0 30 км ясно +13.4 +12.8 96 +13 +13 1018.4 1002.4 +13.3 +31.0
15 15.04 С 1 30 км ясно +20.4 +17.1 81 +25 +34 комфорт 1019.4 1003.6
18 15.04 СЗ 1 30 км ясно +27.0 +19.3 63 +33 +57 опасность
солнечного
удара
1017.7 1002.0 +12.9 +27.6
21 15.04 В 1 30 км ясно +30.5 +19.0 50 +36 +53 опасность
солнечного
удара
1014.2 998.5
00 16.04 В 1 30 км ясно +29.5 +20.5 58 +36 +37 очень
душно
1013.0 997.7 +12.9 +32.0
12 16.04 штиль 0 30 км ясно +16.8 +16.3 97 +17 +17 1016.0 1000.2 +16.7 +32.0
15 16.04 ЮВ 1 30 км ясно +22.6 +18.8 79 +28 +38 душно 1017.0 1001.4
18 16.04 ЮВ 1 30 км ясно +28.0 +22.1 70 +36 +61 опасность
солнечного
удара
1014.7 999.2 +16.5 +28.6
21 16.04 В 1 30 км 1/0
[Ci fib]
+31.1 +22.3 60 +40 +57 опасность
солнечного
удара
1010.0 994.8
00 17.04 В 1 30 км ясно +30.5 +23.3 65 +41 +42 опасность
перегрева
1008.8 993.5 +16.5 +33.0
12 17.04 штиль 0 30 км ясно +19.4 +18.9 97 +22 +22 комфорт 1011.1 995.6 +19.3 +33.0
15 17.04 СЗ 1 30 км ясно +23.4 +21.3 88 +31 +41 очень
душно
1011.9 996.5
18 17.04 В 1 30 км ясно +31.6 +22.9 60 +42 +66 опасность
перегрева
1008.3 993.0 +19.1 +32.2
21 17.04 В 1 30 км ясно +36.0 +22.3 45 +45 +62 опасность
перегрева
1003.5 988.3
00 18.04 В 1 30 км ясно +35.0 +22.8 49 +45 +46 опасность
перегрева
1000.9 986.0 +19.1 +38.0
12 18.04 штиль 0 30 км ясно +20.1 +19.6 97 +23 +23 комфорт 1002.8 987.6 +20.0 +38.0
15 18.04 С 1 20 км мгла {туман} 6/6 900 м
[Cu Sc]
+23.7 +21.4 87 +30 +34 очень
душно
1008.3 993.0
18 18.04 СЗ 1 25 км мгла {туман} 1/1 1000 м
[Cu hum]
+30.5 +22.5 62 +40 +62 опасность
солнечного
удара
1008.6 993.3 +19.9 +31.5
12 19.04 штиль 0 30 км ясно +16.9 +16.4 97 +17 +17 1019.3 1003.7 +16.8 +37.9
15 19.04 штиль 0 30 км 1/0
[Ci fib]
+23.0 +19.9 83 +30 +41 очень
душно
1020.9 1005.2
18 19.04 В 1 30 км 1/0
[Ci fib]
+30.0 +21.0 59 +38 +62 опасность
солнечного
удара
1019.5 1003.9 +16.3 +31.0
12 20.04 штиль 0 30 км ясно +15.0 +14.5 97 +15 +15 1019.3 1003.6 +14.9 +34.5
15 20.04 штиль 0 30 км ясно +21.2 +18.5 85 +26 +37 душно 1020.7 1004.8
18 20.04 В 1 30 км ясно +28.2 +19.8 60 +34 +59 опасность
солнечного
удара
1018.1 1002.5 +14.7 +29.2

 

Местоположение метеостанции Маталапа (Мексика): широта 21.32 долгота -98.81 высота над уровнем моря 132 м.

В архиве по умолчанию представлена погода в Маталапе за последнюю неделю. Архивные данные за месяц целиком и за предыдущие месяцы, начиная с января 2011 года, Вы можете получить, выбрав интересующий диапазон дат из раскрывающегося списка и нажав кнопку "Ввод!".


*Определитесь, кто Вы:
робот инопланетянин человек

Внимание! Время в таблицах - всемирное. Для получения местного времени необходимо прибавить поправку, которая равна -6 ч.

Смотрите также архив погоды в соседних городах и на ближайших метеорологических станциях:

Погода в Тамуине (Мексика) (76 км)
Погода в Пачуке (Мексика) (133 км)
Погода в Рио-Верде (Мексика) (139 км)
Погода в Тампико (Мексика) (139 км)
Погода в Тулансинго (Мексика) (145 км)
Погода в Туспане (Мексика) (152 км)
Погода в Керетаро (Мексика) (185 км)
Погода в Мехико (Мексика) (217 км)
Погода в Институте Географии (Мексика) (226 км)
Погода в Тлашкале (Мексика) (230 км)

Пояснения к столбцам:

Ветер - указаны скорость ветра в м/с - средняя за 10 мин, порывы в срок и между сроками (в фигурных скобках) и направление, откуда дует ветер: С - северный, СВ - северо-восточный, В - восточный, ЮВ - юго-восточный, Ю - южный, ЮЗ - юго-западный, З - западный, СЗ - северо-западный.
Видимость - горизонтальная дальность видимости в метрах или километрах. При видимости от 1 до 10 км при отсутствии осадков обычно наблюдается дымка, при ухудшении видимости до 1 км и менее - туман. В сухую погоду видимость может ухудшаться дымом, пылью или мглою.
Явления - указаны атмосферные явления, наблюдавшиеся в срок или в последний час перед сроком; фигурными скобками обозначены явления, наблюдавшиеся между сроками (за 1-3 часа до срока); квадратными скобками обозначены град или гололедные отложения с указанием их диаметра в мм.
Облачность - указаны через наклонную черту общая и нижняя облачность в баллах и высота нижней границы облаков в метрах; квадратными скобками обозначены формы облаков: Ci - перистые, Cs - перисто-слоистые, Cc - перисто-кучевые, Ac - высококучевые, As - высокослоистые, Sc - слоисто-кучевые, Ns - слоисто-дождевые, Cu - кучевые, Cb - кучево-дождевые. Подробнее классификацию облаков см. в Атласе облаков (PDF).
T - Температура воздуха - температура, измеренная на высоте 2 м над землей.
Td - Температура точки росы - температура, при понижении до которой содержащийся в воздухе водяной пар достигнет насыщения.
f - Относительная влажность воздуха - влажноcть воздуха, измеренная на высоте 2 м над землей.
Te - Эффективная температура - температура, которую ощущает одетый по сезону человек в тени. Характеристика душности погоды. При расчете учитывается влияние влажности воздуха и скорости ветра на теплоощущения человека.
Tes - Эффективная температура на солнце - температура, которую ощущает человек, с поправкой на солнечный нагрев. Характеристика знойности погоды. Зависит от высоты солнца над горизонтом, облачности и скорости ветра. Ночью, в пасмурную погоду, а также при ветре 12 м/с и более поправка равна нулю.
P - Атмосферное давление - приведенное к уровню моря атмосферное давление.
Po - Атмосферное давление - измеренное на уровне метеостанции атмосферное давление.
Tmin - Минимальная температура - минимум температуры воздуха на высоте 2 м над землей.
Tmax - Максимальная температура - максимум температуры воздуха на высоте 2 м над землей.
R - Количество осадков - Количество выпавших осадков за период времени, мм. При наведении курсора мыши на число - период времени, за который выпало указанное количество осадков.
R24 - Количество осадков - Количество выпавших осадков за 24 часа, мм.
S - Снежный покров - Высота снежного покрова, см. При наведении курсора мыши на число - состояние снежного покрова и степень покрытия местности в баллах.